Vorticity
6 7 7 7 7 7 8 8 8 8 7 7 6 6 6 6 6 6 6 6 5 5 5 5 4 4 4 4 5 5 5 5 5 5 6 6 7 7 7 7 7 6 6 6 7 7 7 7 8 8 9 10 10 10 10 10 10 9 9 9 8 8 8 7 8 7 7 7 7
7 7 7 6 6 6 7 7 7 7 7 7 6 6 6 6 6 6 6 6 5 5 4 4 4 4 4 4 5 5 5 5 5 6 6 6 7 7 7 7 7 7 7 7 7 7 7 8 8 9 9 10 10 10 10 10 10 9 8 9 8 8 7 8 8 7 7 7 7
6 6 6 5 5 5 5 5 5 5 6 6 6 6 6 6 5 5 5 5 4 4 4 4 4 4 4 4 4 5 5 5 6 6 6 6 7 7 7 7 7 7 7 7 7 7 8 8 8 9 9 9 10 10 10 10 9 9 9 8 7 7 8 8 7 7 7 7 7
5 5 4 4 3 3 3 3 3 3 4 4 5 5 5 5 5 5 4 4 4 4 4 4 4 4 4 4 4 4 4 5 6 6 6 7 7 7 7 7 7 7 7 7 7 8 8 8 9 9 10 10 10 10 10 9 9 9 9 8 7 7 8 7 7 7 7 7 7
4 3 2 2 1 1 1 0 1 2 2 3 3 4 4 5 4 4 4 5 4 4 4 4 4 3 4 4 4 4 4 4 5 6 7 7 7 7 7 7 7 7 7 7 8 8 8 9 9 10 10 10 10 10 9 8 8 8 8 8 8 8 8 7 7 7 7 7 7
3 2 2 1 0 -0 -0 -0 0 0 1 1 2 3 4 4 4 4 5 5 4 4 3 4 3 3 3 4 4 4 4 4 5 6 7 7 7 7 7 7 7 7 7 7 8 8 8 9 9 10 10 10 10 10 9 8 8 8 7 8 8 8 8 8 7 7 7 7 7
0 1 1 0 -0 -1 -1 -0 0 0 0 0 1 2 2 3 4 4 4 4 4 4 4 4 3 3 3 3 3 4 4 4 5 6 7 7 7 7 7 7 7 7 7 7 8 9 9 9 9 9 10 10 10 9 9 9 8 8 7 8 8 8 8 8 7 7 7 7 7
-1 -1 -1 -1 -1 -1 -0 -0 0 0 0 1 1 1 1 2 3 4 4 4 4 4 4 3 3 3 3 3 3 3 4 5 6 6 7 7 7 7 7 7 7 7 8 8 8 9 9 10 10 10 9 9 9 9 8 8 8 8 8 8 7 8 8 8 7 7 8 7 7
-1 -1 -1 -1 -1 -0 0 0 0 0 0 0 1 1 1 2 2 3 4 4 4 4 4 4 3 3 2 3 3 3 4 5 6 7 7 7 7 7 7 7 7 7 8 8 9 9 9 9 10 10 10 9 9 8 8 8 8 8 8 8 7 7 8 8 8 8 8 7 7
-1 -1 -0 -0 0 1 1 0 0 0 0 0 0 0 1 2 3 4 4 4 4 4 4 4 3 3 2 2 3 3 4 5 6 7 7 8 8 7 7 7 7 7 8 9 9 9 9 9 10 10 10 10 9 8 8 8 8 8 8 8 7 7 7 8 8 8 8 8 7
-0 -0 0 0 0 1 1 1 1 1 0 0 0 1 1 2 3 4 4 4 4 4 4 3 3 3 2 2 3 4 4 6 7 7 7 8 8 7 7 7 7 8 8 8 9 9 9 9 9 9 9 9 9 8 8 8 8 8 8 8 8 7 7 7 8 8 8 7 7
0 0 1 1 1 1 1 1 1 1 0 0 0 1 1 2 2 3 4 5 5 4 4 3 3 3 2 2 3 4 5 6 7 8 8 8 8 8 7 8 8 8 8 8 9 9 9 9 9 9 8 8 9 8 8 8 8 8 7 7 7 7 7 7 7 8 7 7 7
1 1 2 2 2 2 2 1 1 1 0 0 0 0 1 2 2 4 4 5 4 4 3 3 3 2 2 3 3 4 6 7 7 8 8 8 8 8 8 8 8 9 9 9 9 9 10 9 9 8 8 8 8 8 8 8 8 8 7 7 7 7 8 7 7 7 7 7 8
1 2 2 2 2 2 1 1 1 1 0 0 0 0 1 1 3 4 5 4 4 4 3 2 2 3 3 3 4 5 6 7 8 8 8 8 8 8 8 8 9 9 9 10 10 10 10 9 9 8 8 7 8 8 8 8 8 8 8 7 7 8 8 7 7 7 7 8 8
2 2 2 2 2 2 1 1 1 0 0 0 0 0 1 2 3 4 5 5 4 4 3 2 2 2 3 4 4 6 6 7 8 8 8 8 8 8 8 8 9 10 10 10 10 10 10 9 8 8 8 8 8 8 8 8 8 8 8 8 8 8 8 7 7 7 8 8 8
2 2 2 2 2 2 1 1 1 0 0 0 -0 0 1 2 3 4 5 5 4 3 3 2 2 2 3 4 5 6 7 8 9 9 9 8 8 8 9 9 9 10 10 9 9 9 9 9 8 8 8 8 8 8 8 8 8 8 8 8 8 8 8 7 7 8 8 8 9
2 2 2 2 2 2 1 1 1 0 0 -0 0 1 1 2 3 4 5 4 4 3 3 3 3 3 4 4 6 7 8 8 9 9 9 8 8 8 9 10 10 10 9 9 9 8 8 8 8 8 8 8 8 8 8 8 8 8 8 8 8 8 7 7 8 8 9 10 11
3 2 2 2 2 2 1 1 1 0 0 -0 0 1 2 3 4 4 5 4 4 3 3 2 3 4 5 5 6 8 9 9 9 9 9 8 8 8 9 9 10 9 9 9 8 8 7 7 7 8 8 8 8 8 8 8 8 8 7 7 7 7 7 8 8 9 10 11 12
2 2 2 2 2 2 1 1 1 0 0 0 1 1 2 4 4 4 4 4 4 3 3 2 3 5 6 7 7 8 9 10 9 8 8 8 8 9 9 10 10 9 9 9 8 8 7 7 7 7 8 8 8 8 8 8 7 7 7 7 7 7 8 8 9 10 11 12 12
2 2 2 2 2 1 1 1 0 0 0 0 1 2 3 4 5 5 4 4 4 3 3 3 4 5 7 8 8 9 9 10 9 8 8 8 9 10 10 9 9 9 9 9 8 8 8 8 8 8 8 7 7 7 7 7 7 7 7 7 7 8 8 9 10 11 12 12 12
2 2 2 1 1 1 1 1 1 0 0 1 2 3 4 4 5 5 5 4 3 3 4 4 6 6 7 8 9 9 9 9 9 9 8 8 10 10 10 9 9 8 8 8 8 8 8 8 8 7 7 7 7 7 6 6 6 6 6 7 8 8 10 10 11 12 12 12 12
2 1 1 1 1 1 1 1 1 1 1 2 3 4 4 5 5 5 4 4 4 4 5 6 7 7 8 8 9 8 8 8 9 9 9 9 10 10 10 9 9 8 8 8 8 8 7 7 7 7 7 7 7 7 7 6 6 6 7 7 8 9 10 11 12 12 12 11 11
1 1 1 1 1 1 1 1 1 2 2 3 4 4 5 5 5 5 4 4 4 5 6 6 7 8 8 9 8 8 7 8 9 10 10 10 10 10 10 10 9 9 9 8 8 7 7 7 7 7 7 7 7 7 7 7 7 7 8 8 9 10 11 12 12 12 11 11 10
1 0 0 0 0 1 1 1 2 3 4 4 5 5 5 5 5 5 5 5 5 6 6 7 8 8 8 8 9 8 8 8 8 9 10 11 10 10 9 9 9 9 8 8 7 7 7 7 7 7 7 7 7 7 7 7 7 8 9 10 10 11 12 12 12 11 11 10 10
0 -0 -0 0 0 1 1 2 3 4 4 5 5 4 5 5 5 5 5 5 6 7 7 7 8 8 8 9 9 9 9 9 9 9 9 10 10 10 9 9 9 8 8 7 7 7 7 8 7 7 7 7 7 7 7 8 8 9 10 11 11 11 11 11 11 11 10 10 10
-1 -1 -0 0 0 1 2 4 4 4 5 4 4 4 5 5 5 5 6 6 7 7 8 8 8 8 9 9 8 9 10 11 10 10 9 9 9 9 9 8 8 8 7 7 7 7 7 8 8 8 7 7 7 7 7 8 9 10 11 12 12 12 11 11 10 10 10 10 10
-1 -0 -0 0 1 2 4 4 4 5 4 4 4 4 5 5 6 6 7 7 7 7 8 8 9 9 8 8 8 9 10 10 10 10 10 9 8 8 8 8 8 7 7 7 7 7 7 7 7 7 7 7 7 7 8 9 10 11 12 12 12 12 12 11 10 10 9 9 9
-1 -0 0 1 3 4 4 5 5 5 4 4 4 5 5 6 6 7 7 8 7 8 9 10 10 8 8 9 10 10 10 9 10 10 10 9 9 8 8 7 7 7 7 7 7 7 7 7 7 7 7 7 8 8 9 10 11 11 12 12 12 11 11 10 10 10 9 9 9
-0 0 2 3 4 5 5 5 5 4 3 4 4 5 6 7 7 8 8 8 8 9 10 9 8 8 10 11 11 10 10 10 10 9 8 8 9 8 8 7 7 7 7 8 8 8 7 7 7 7 7 7 8 9 10 11 11 12 12 12 11 11 10 10 10 10 9 9 9
1 2 3 4 5 5 5 4 3 3 3 4 5 6 7 7 8 9 9 9 10 10 9 7 8 9 11 11 10 10 10 10 9 9 8 8 8 8 7 7 7 7 7 8 8 7 7 7 7 7 7 8 8 10 10 11 11 12 11 11 11 10 10 10 10 9 9 9 9
3 4 5 6 6 5 4 3 2 3 4 6 6 7 8 8 10 10 10 10 9 8 8 8 9 10 10 10 10 10 10 9 9 9 8 8 7 7 7 7 7 8 8 8 7 7 7 7 7 7 8 8 9 10 11 11 11 12 11 11 10 10 10 9 9 9 9 9 10
4 5 6 6 5 4 3 2 4 5 6 6 7 8 9 10 10 9 9 9 8 8 8 10 10 10 10 10 10 10 9 8 8 8 8 7 7 7 7 8 8 8 8 8 7 7 7 7 7 8 8 9 10 10 10 11 11 11 11 10 10 10 9 9 9 9 10 10 11
6 6 6 5 4 3 3 4 5 6 7 8 8 9 10 10 9 9 9 10 10 9 9 9 10 10 10 10 9 9 9 9 8 7 7 7 7 7 8 8 8 8 7 7 7 7 7 8 8 8 9 9 10 10 10 11 11 11 10 10 10 9 9 9 9 10 10 11 12
7 6 5 4 3 3 4 6 6 7 8 8 9 10 10 9 9 9 10 10 10 10 10 10 10 10 10 9 8 8 8 7 7 7 7 7 8 8 8 9 8 8 7 7 7 7 8 8 9 9 9 9 10 10 10 10 11 10 10 10 9 9 9 9 10 10 11 12 13
6 5 4 4 4 5 6 6 7 8 8 9 10 10 10 10 10 10 10 9 9 9 10 11 10 10 9 9 9 8 7 6 7 7 8 8 8 8 8 8 7 7 7 7 7 8 8 9 9 9 10 10 10 10 10 10 10 10 10 9 9 9 9 9 10 11 12 13 15
5 4 4 4 5 6 7 7 8 8 9 9 10 10 10 10 10 10 9 8 9 9 10 10 10 9 9 9 9 9 8 7 7 7 8 8 8 8 8 7 7 7 7 8 8 8 9 9 10 10 10 10 10 10 10 10 10 10 9 9 8 9 9 9 10 12 13 15 17
5 5 5 6 6 7 7 8 8 8 9 10 10 10 10 10 10 10 10 9 9 10 10 9 9 9 9 8 8 8 8 8 7 7 8 8 8 8 7 7 7 7 8 8 8 9 9 10 10 10 10 10 10 10 10 10 10 9 9 8 8 9 9 10 11 13 15 17 18
5 6 6 6 7 7 8 8 9 10 10 11 11 11 10 10 9 9 10 10 10 10 9 9 9 9 8 8 7 7 8 9 8 8 8 8 8 8 7 7 7 8 8 8 9 9 10 10 10 10 10 10 10 10 10 9 9 9 9 8 9 9 10 11 13 14 17 19 19
6 6 6 6 7 8 8 9 11 11 11 10 10 10 10 10 10 10 10 10 10 9 8 8 9 8 8 7 7 8 8 9 9 8 8 8 8 8 7 7 8 8 8 9 9 10 10 10 10 10 10 10 10 10 9 9 9 8 9 9 9 10 11 13 14 16 18 19 18
6 6 6 7 8 9 10 11 12 12 11 10 10 10 10 10 10 9 9 10 10 9 9 8 8 8 8 8 8 8 8 8 9 9 8 7 7 8 8 8 8 8 9 10 10 10 10 10 10 10 10 10 9 9 9 9 8 8 9 10 10 11 13 14 16 18 18 18 17
6 7 8 9 10 10 11 11 11 11 11 10 10 10 10 9 9 9 9 9 9 9 9 8 8 8 8 9 8 8 8 8 8 8 8 7 8 8 8 9 8 9 9 10 10 10 10 10 10 10 9 9 9 9 8 8 8 9 10 11 12 13 14 15 17 18 18 17 16
Height
3081 3081 3081 3081 3082 3082 3082 3082 3082 3082 3082 3081 3081 3081 3080 3079 3079 3078 3077 3077 3076 3075 3074 3073 3071 3070 3069 3067 3066 3065 3063 3062 3060 3059 3058 3056 3055 3053 3052 3051 3050 3048 3047 3046 3044 3043 3041 3040 3039 3037 3036 3035 3033 3031 3030 3028 3027 3025 3023 3022 3020 3018 3017 3015 3013 3011 3010 3008 3006
3080 3080 3080 3081 3081 3081 3081 3081 3081 3081 3081 3080 3080 3079 3079 3078 3077 3076 3076 3075 3074 3073 3072 3071 3069 3068 3067 3065 3064 3063 3061 3060 3058 3057 3056 3054 3053 3051 3050 3049 3047 3046 3045 3044 3042 3041 3040 3038 3037 3035 3034 3032 3031 3029 3028 3026 3025 3023 3021 3019 3018 3016 3014 3012 3011 3009 3007 3006 3004
3079 3079 3079 3080 3080 3080 3080 3080 3080 3079 3079 3079 3078 3078 3077 3076 3076 3075 3074 3073 3072 3071 3070 3069 3067 3066 3065 3064 3062 3061 3060 3058 3057 3055 3054 3052 3051 3050 3048 3047 3046 3044 3043 3041 3040 3039 3037 3036 3035 3033 3032 3030 3029 3027 3026 3024 3022 3021 3019 3017 3015 3013 3012 3010 3008 3006 3005 3003 3001
3078 3078 3078 3078 3079 3079 3078 3078 3078 3078 3078 3077 3077 3076 3076 3075 3074 3074 3073 3071 3071 3069 3068 3067 3066 3064 3063 3062 3061 3059 3058 3056 3055 3053 3052 3051 3049 3048 3046 3045 3043 3042 3041 3039 3038 3036 3035 3034 3032 3031 3029 3028 3026 3025 3023 3021 3020 3018 3016 3014 3012 3011 3009 3007 3005 3004 3002 3000 2998
3077 3077 3077 3077 3077 3077 3077 3077 3077 3076 3076 3076 3075 3075 3074 3073 3072 3072 3071 3070 3069 3067 3066 3065 3064 3063 3061 3060 3059 3057 3056 3055 3053 3051 3050 3049 3047 3046 3044 3043 3041 3040 3039 3037 3036 3034 3033 3031 3030 3028 3027 3025 3023 3022 3020 3018 3017 3015 3013 3012 3010 3008 3006 3004 3002 3001 2999 2997 2995
3076 3076 3076 3076 3076 3076 3076 3076 3076 3075 3075 3074 3074 3073 3072 3071 3071 3070 3069 3068 3067 3066 3064 3063 3062 3061 3060 3058 3057 3056 3054 3053 3051 3050 3048 3046 3045 3044 3042 3041 3039 3038 3036 3035 3034 3032 3031 3029 3027 3026 3024 3023 3021 3019 3017 3016 3014 3012 3011 3009 3007 3005 3003 3001 3000 2998 2996 2994 2992
3075 3075 3075 3075 3075 3075 3075 3074 3074 3074 3073 3072 3072 3071 3070 3070 3069 3068 3067 3066 3065 3064 3063 3061 3060 3059 3058 3056 3055 3054 3052 3051 3049 3048 3046 3045 3043 3041 3040 3038 3037 3036 3034 3033 3031 3030 3028 3027 3025 3023 3022 3020 3018 3016 3014 3013 3011 3010 3008 3006 3004 3002 3001 2998 2996 2995 2993 2991 2989
3074 3074 3074 3074 3074 3073 3073 3073 3072 3072 3071 3071 3070 3069 3069 3068 3067 3066 3065 3064 3063 3062 3061 3060 3059 3057 3056 3055 3053 3052 3050 3049 3047 3046 3044 3042 3041 3040 3038 3036 3035 3033 3032 3031 3029 3027 3026 3024 3022 3021 3019 3017 3016 3014 3012 3010 3008 3007 3005 3003 3001 3000 2998 2996 2994 2992 2990 2988 2986
3073 3073 3073 3072 3072 3072 3072 3071 3071 3070 3070 3069 3068 3068 3067 3066 3065 3064 3063 3062 3061 3060 3059 3058 3057 3055 3054 3053 3051 3050 3048 3047 3045 3044 3042 3041 3039 3037 3036 3035 3033 3031 3030 3028 3026 3025 3023 3021 3020 3018 3016 3014 3013 3011 3009 3007 3006 3004 3002 3001 2999 2997 2995 2993 2991 2989 2987 2985 2983
3071 3071 3071 3071 3071 3071 3070 3070 3069 3069 3068 3067 3066 3066 3065 3064 3063 3063 3062 3061 3060 3059 3057 3056 3055 3053 3052 3051 3049 3048 3046 3045 3043 3041 3040 3038 3037 3035 3034 3032 3031 3029 3027 3026 3024 3022 3021 3019 3017 3015 3013 3011 3010 3008 3006 3005 3003 3001 2999 2997 2996 2994 2992 2990 2988 2986 2984 2982 2980
3070 3070 3070 3070 3069 3069 3069 3068 3067 3067 3066 3066 3065 3064 3063 3062 3062 3061 3060 3059 3058 3057 3056 3054 3053 3051 3050 3049 3047 3046 3044 3042 3041 3039 3038 3036 3035 3033 3031 3030 3028 3027 3025 3023 3021 3020 3018 3016 3015 3013 3011 3009 3007 3006 3003 3002 3000 2998 2996 2995 2993 2991 2989 2987 2985 2983 2981 2979 2977
3069 3068 3068 3068 3068 3067 3067 3066 3066 3065 3065 3064 3063 3062 3061 3061 3060 3059 3058 3057 3056 3055 3053 3052 3051 3049 3048 3046 3045 3043 3042 3040 3039 3037 3036 3034 3032 3031 3029 3028 3026 3024 3022 3021 3019 3017 3015 3013 3012 3010 3008 3006 3005 3003 3001 2999 2997 2996 2994 2992 2990 2988 2986 2984 2982 2980 2978 2976 2974
3067 3067 3067 3066 3066 3066 3065 3065 3064 3063 3063 3062 3061 3061 3060 3059 3058 3057 3056 3055 3054 3053 3051 3050 3048 3047 3046 3044 3043 3041 3040 3038 3036 3035 3033 3031 3030 3028 3027 3025 3023 3022 3020 3018 3016 3014 3012 3011 3009 3007 3006 3004 3002 3000 2998 2996 2994 2993 2991 2989 2987 2985 2983 2981 2979 2977 2975 2972 2970
3066 3066 3065 3065 3065 3064 3063 3063 3062 3061 3061 3060 3059 3059 3058 3057 3056 3055 3054 3053 3052 3051 3049 3048 3046 3045 3044 3042 3041 3039 3037 3036 3034 3032 3031 3029 3028 3026 3024 3022 3021 3019 3017 3015 3013 3011 3010 3008 3006 3004 3003 3001 2999 2997 2996 2994 2991 2990 2988 2986 2984 2982 2980 2978 2976 2973 2971 2969 2967
3064 3064 3064 3063 3063 3062 3061 3061 3060 3060 3059 3058 3057 3057 3056 3055 3054 3053 3052 3051 3050 3049 3047 3046 3044 3043 3041 3040 3038 3036 3035 3033 3032 3030 3028 3027 3025 3023 3022 3020 3018 3016 3015 3012 3011 3009 3007 3005 3003 3001 3000 2998 2996 2995 2993 2991 2989 2987 2985 2983 2981 2979 2976 2974 2972 2970 2968 2966 2963
3062 3062 3062 3061 3061 3061 3060 3059 3058 3058 3057 3056 3056 3055 3054 3053 3052 3051 3050 3049 3048 3046 3045 3044 3042 3041 3039 3037 3036 3034 3032 3031 3029 3028 3026 3024 3023 3021 3019 3017 3016 3014 3012 3010 3008 3006 3005 3003 3001 2999 2997 2995 2993 2992 2990 2988 2986 2984 2982 2980 2978 2976 2973 2971 2969 2966 2964 2962 2960
3061 3061 3060 3060 3059 3059 3058 3057 3056 3056 3055 3054 3054 3053 3052 3051 3050 3049 3048 3047 3046 3044 3043 3041 3040 3038 3037 3035 3033 3032 3030 3028 3027 3025 3023 3022 3020 3018 3016 3015 3013 3011 3009 3007 3006 3004 3002 3000 2998 2996 2994 2992 2991 2989 2987 2985 2983 2981 2979 2977 2975 2973 2970 2968 2966 2963 2961 2959 2956
3059 3059 3058 3058 3057 3057 3056 3056 3055 3054 3053 3052 3052 3051 3050 3049 3048 3047 3046 3045 3044 3042 3041 3039 3038 3036 3034 3033 3031 3029 3028 3026 3024 3022 3021 3019 3017 3016 3014 3012 3010 3008 3006 3005 3003 3001 3000 2998 2996 2994 2992 2990 2988 2986 2984 2982 2980 2978 2976 2974 2972 2970 2967 2965 2963 2960 2958 2956 2953
3057 3057 3057 3056 3056 3055 3055 3054 3053 3052 3051 3051 3050 3049 3048 3047 3046 3045 3044 3043 3041 3040 3039 3037 3035 3034 3032 3030 3028 3027 3025 3023 3022 3020 3018 3016 3015 3013 3011 3009 3007 3006 3004 3002 3001 2999 2997 2995 2993 2991 2989 2987 2985 2983 2981 2980 2978 2976 2974 2971 2969 2967 2965 2962 2960 2957 2955 2952 2950
3056 3056 3055 3055 3054 3053 3053 3052 3051 3051 3050 3049 3048 3047 3046 3045 3044 3043 3042 3041 3039 3038 3036 3035 3033 3031 3030 3028 3026 3024 3023 3021 3019 3017 3016 3014 3012 3010 3008 3006 3005 3003 3001 3000 2998 2996 2994 2992 2990 2988 2986 2984 2982 2981 2979 2977 2975 2973 2971 2969 2966 2964 2961 2959 2957 2954 2952 2949 2947
3054 3054 3053 3053 3052 3052 3051 3050 3050 3049 3048 3047 3046 3045 3044 3043 3042 3041 3040 3038 3037 3036 3034 3032 3031 3029 3027 3026 3024 3022 3020 3018 3017 3015 3013 3011 3009 3007 3006 3004 3002 3001 2999 2997 2995 2993 2991 2989 2987 2985 2983 2981 2980 2978 2976 2974 2972 2970 2968 2966 2963 2961 2959 2956 2954 2951 2949 2946 2944
3052 3052 3052 3051 3051 3050 3049 3048 3048 3047 3046 3045 3044 3043 3042 3041 3040 3039 3038 3036 3035 3033 3032 3030 3028 3026 3025 3023 3021 3020 3018 3016 3014 3012 3010 3009 3007 3005 3003 3001 3000 2998 2996 2995 2993 2991 2989 2987 2985 2983 2981 2979 2977 2975 2973 2971 2969 2967 2965 2963 2960 2958 2956 2953 2951 2948 2946 2943 2941
3051 3051 3050 3049 3049 3048 3047 3046 3046 3045 3044 3043 3042 3041 3040 3039 3038 3037 3035 3034 3032 3031 3029 3027 3026 3024 3022 3021 3019 3017 3016 3014 3012 3010 3008 3006 3004 3002 3001 2999 2997 2996 2994 2992 2990 2988 2986 2984 2982 2980 2978 2976 2974 2972 2970 2968 2966 2964 2961 2959 2957 2955 2952 2950 2948 2945 2942 2940 2937
3049 3049 3048 3048 3047 3046 3046 3045 3044 3043 3042 3041 3040 3039 3038 3037 3036 3035 3033 3032 3030 3028 3027 3025 3023 3021 3020 3018 3016 3015 3013 3011 3010 3008 3006 3004 3002 3000 2998 2996 2995 2993 2991 2990 2987 2985 2983 2981 2979 2977 2975 2973 2971 2969 2967 2965 2963 2961 2958 2956 2954 2951 2949 2947 2945 2942 2940 2937 2934
3047 3047 3046 3046 3045 3044 3044 3043 3042 3041 3040 3039 3038 3037 3036 3035 3034 3032 3031 3029 3028 3026 3024 3022 3021 3019 3017 3015 3014 3012 3010 3009 3007 3005 3003 3001 3000 2998 2996 2995 2993 2991 2989 2987 2985 2983 2981 2978 2976 2974 2972 2970 2968 2966 2964 2962 2960 2958 2955 2953 2951 2948 2946 2944 2941 2939 2937 2934 2932
3046 3045 3045 3044 3043 3042 3041 3041 3040 3039 3038 3037 3036 3035 3034 3033 3031 3030 3029 3027 3025 3023 3021 3020 3018 3016 3015 3013 3011 3009 3007 3006 3004 3003 3001 2999 2998 2996 2994 2992 2991 2988 2986 2985 2982 2980 2978 2976 2974 2971 2969 2967 2965 2963 2961 2959 2957 2955 2952 2950 2947 2945 2943 2940 2938 2936 2933 2931 2929
3044 3043 3042 3042 3041 3041 3040 3039 3038 3037 3036 3035 3034 3033 3032 3031 3029 3028 3026 3024 3023 3021 3019 3017 3016 3014 3012 3011 3009 3007 3005 3003 3002 3000 2998 2997 2995 2994 2992 2990 2988 2986 2984 2982 2980 2978 2976 2974 2971 2969 2966 2964 2962 2961 2959 2956 2954 2952 2949 2947 2944 2941 2939 2937 2935 2933 2930 2928 2925
3042 3041 3041 3040 3039 3038 3038 3037 3036 3035 3034 3033 3032 3031 3030 3028 3027 3025 3024 3022 3020 3018 3017 3015 3013 3011 3010 3008 3006 3005 3003 3001 2999 2998 2996 2994 2993 2991 2989 2987 2985 2983 2981 2979 2977 2975 2973 2971 2969 2966 2964 2962 2960 2958 2956 2954 2951 2949 2946 2944 2941 2939 2936 2934 2931 2929 2927 2925 2922
3040 3039 3039 3038 3037 3036 3036 3035 3034 3033 3032 3031 3030 3029 3028 3026 3025 3023 3021 3019 3018 3016 3014 3013 3011 3009 3008 3006 3004 3002 3001 2999 2997 2995 2994 2992 2990 2988 2986 2984 2982 2981 2979 2977 2975 2973 2971 2968 2966 2964 2962 2959 2957 2955 2953 2951 2948 2946 2943 2941 2938 2936 2933 2931 2928 2926 2924 2921 2919
3038 3037 3037 3036 3036 3035 3034 3033 3032 3031 3030 3029 3028 3027 3025 3024 3022 3020 3019 3017 3015 3014 3012 3011 3009 3007 3006 3004 3002 3000 2998 2996 2995 2993 2991 2990 2988 2986 2984 2982 2980 2978 2976 2974 2972 2970 2968 2966 2964 2961 2959 2956 2954 2952 2950 2948 2946 2943 2941 2938 2935 2933 2930 2928 2926 2923 2921 2918 2915
3036 3036 3035 3034 3033 3033 3032 3031 3030 3029 3028 3027 3026 3024 3023 3021 3020 3018 3016 3015 3013 3011 3010 3008 3007 3005 3003 3001 3000 2998 2996 2994 2992 2991 2989 2987 2985 2983 2981 2980 2977 2975 2973 2971 2970 2967 2965 2963 2961 2958 2956 2954 2951 2949 2947 2945 2942 2940 2938 2935 2932 2930 2927 2925 2922 2920 2917 2914 2911
3034 3034 3033 3032 3031 3031 3030 3029 3028 3027 3026 3025 3023 3022 3021 3019 3017 3016 3014 3012 3011 3009 3007 3006 3004 3003 3001 2999 2997 2996 2994 2992 2990 2988 2986 2985 2983 2981 2979 2977 2975 2973 2971 2969 2967 2965 2962 2960 2958 2956 2953 2951 2948 2946 2944 2942 2940 2937 2935 2932 2930 2927 2925 2922 2919 2916 2913 2911 2907
3033 3032 3031 3031 3030 3029 3028 3027 3026 3025 3024 3022 3021 3020 3018 3016 3015 3013 3012 3010 3008 3007 3005 3004 3002 3000 2999 2997 2995 2993 2991 2990 2988 2986 2984 2982 2980 2978 2976 2975 2972 2970 2968 2966 2964 2962 2960 2957 2955 2953 2950 2948 2945 2943 2941 2939 2937 2935 2932 2930 2927 2925 2922 2919 2916 2913 2910 2907 2904
3031 3030 3029 3028 3028 3027 3026 3025 3024 3023 3021 3020 3019 3017 3016 3014 3012 3011 3009 3008 3006 3005 3003 3001 3000 2998 2996 2995 2993 2991 2989 2987 2985 2983 2981 2980 2978 2976 2974 2972 2970 2968 2966 2963 2961 2959 2957 2955 2952 2950 2947 2945 2942 2940 2938 2936 2934 2931 2929 2927 2924 2922 2919 2916 2913 2910 2907 2904 2901
3029 3028 3027 3026 3026 3025 3024 3023 3022 3021 3019 3018 3016 3015 3013 3012 3010 3009 3007 3005 3004 3002 3001 2999 2997 2995 2994 2992 2990 2988 2986 2985 2983 2981 2979 2977 2975 2974 2972 2970 2967 2965 2963 2961 2958 2956 2954 2952 2949 2947 2944 2941 2939 2937 2935 2933 2931 2929 2926 2924 2921 2919 2916 2913 2910 2907 2904 2901 2898
3027 3026 3026 3025 3024 3023 3022 3021 3020 3018 3017 3015 3014 3012 3011 3009 3008 3006 3005 3003 3001 3000 2998 2996 2995 2993 2991 2989 2988 2986 2984 2982 2981 2979 2977 2975 2973 2971 2969 2967 2965 2962 2960 2958 2956 2954 2951 2949 2946 2944 2941 2938 2936 2934 2932 2930 2928 2926 2923 2921 2918 2915 2913 2910 2907 2904 2901 2898 2895
3025 3025 3024 3023 3022 3021 3020 3018 3017 3016 3014 3013 3011 3010 3008 3007 3005 3004 3002 3001 2999 2997 2996 2994 2992 2991 2989 2987 2986 2984 2982 2980 2978 2976 2974 2972 2970 2968 2966 2964 2962 2960 2957 2955 2953 2951 2948 2946 2943 2941 2938 2936 2933 2931 2929 2926 2924 2922 2920 2917 2915 2912 2909 2907 2904 2901 2898 2895 2892
3024 3023 3022 3021 3020 3019 3017 3016 3015 3013 3012 3010 3009 3007 3006 3004 3003 3001 3000 2998 2997 2995 2994 2992 2990 2988 2987 2985 2984 2982 2980 2978 2976 2974 2971 2969 2967 2965 2963 2961 2959 2957 2955 2952 2950 2948 2946 2943 2941 2938 2935 2933 2930 2928 2926 2923 2921 2919 2916 2914 2911 2908 2906 2903 2901 2898 2895 2892 2889
3022 3021 3020 3019 3017 3016 3015 3013 3012 3011 3009 3008 3006 3005 3004 3002 3001 2999 2997 2996 2995 2993 2991 2990 2988 2986 2985 2983 2981 2980 2978 2976 2973 2971 2969 2967 2965 2962 2961 2958 2956 2954 2952 2950 2947 2945 2943 2941 2938 2935 2932 2930 2927 2925 2923 2920 2918 2915 2913 2910 2908 2905 2902 2899 2897 2895 2893 2890 2886
3020 3018 3017 3016 3015 3014 3012 3011 3010 3008 3007 3006 3004 3003 3001 3000 2998 2997 2995 2994 2992 2991 2989 2987 2986 2984 2982 2981 2979 2977 2976 2974 2971 2969 2966 2964 2962 2960 2958 2956 2953 2951 2949 2947 2945 2942 2940 2938 2935 2933 2930 2927 2925 2922 2920 2917 2915 2912 2909 2907 2905 2902 2900 2896 2894 2891 2890 2887 2884
3017 3016 3015 3014 3012 3011 3010 3009 3007 3006 3005 3003 3002 3001 2999 2998 2996 2995 2993 2991 2990 2988 2987 2985 2984 2982 2980 2978 2976 2975 2973 2971 2969 2966 2964 2962 2960 2957 2955 2953 2951 2949 2946 2945 2942 2940 2937 2935 2933 2931 2928 2925 2922 2919 2917 2914 2912 2909 2906 2903 2901 2899 2896 2894 2891 2888 2886 2884 2881